[[{"header":{"parameterUnit":"m.s-1","parameterCategory":2,"la1":30.2992,"la2":30.254,"lo1":-89.0895,"lo2":-89.0443,"dy":0.0025,"dx":0.0025,"nx":19,"ny":19,"refTime":"2026-05-09T21:00:00:Z","depth":"0","parameterNumber":2,"parameterNumberName":"U-component_of_CURRENTS"},"data":[0,0,0,0.0623,0.0626,0.077,0.0771,0.0927,0.0928,0,0,0,0,0,0,0,0,0,0,0,0.0575,0.0576,0.0623,0.0626,0.077,0.0771,0.0927,0.0928,0,0,0,0,0,0,0,0,0,0,0,0.0574,0.0576,0.0577,0.0626,0.077,0.0771,0.0927,0.0826,0,0,0,0,0,0,0,0,0,0,0.069,0.0652,0.0575,0.0577,0.0627,0.077,0.0771,0.0822,0.0833,0.0851,0,0.0875,0,0.0902,0.0938,0.0938,0,0,0,0.0633,0.0643,0.0677,0.0577,0.0628,0.077,0.0707,0.0828,0.084,0.0865,0.0878,0.0884,0.0904,0.0938,0.0939,0.1132,0.1133,0,0,0.0625,0.0607,0.0668,0.0684,0.0668,0.0702,0.0712,0.0836,0.0851,0.0878,0.0888,0.0907,0.0939,0.094,0.1131,0.1132,0,0,0,0.0597,0.0602,0.0634,0.0677,0.0704,0.0706,0.0717,0.0846,0.0856,0.089,0.0909,0.094,0.0942,0.113,0.1131,0.117,0,0,0,0.0593,0.0585,0.063,0.0622,0.0702,0.0782,0.0724,0.0847,0.0862,0.0908,0.094,0.0943,0.1129,0.1131,0.1166,0.1169,0,0,0,0.0568,0.0583,0.0598,0.062,0.0679,0.078,0.0798,0.0851,0.0873,0.0938,0.0943,0.1128,0.113,0.1163,0.1165,0.1192,0,0,0,0.0545,0.0615,0.0598,0.068,0.0677,0.0798,0.0798,0.088,0.0937,0.0941,0.1129,0.1131,0.1162,0.1162,0.1189,0.118,0.1192,0,0,0.0627,0.0624,0.0672,0.0661,0.0797,0.0778,0.0919,0.0975,0.0986,0.1084,0.1089,0.1167,0.1164,0.1191,0.133,0.1336,0,0,0,0.0694,0.0748,0.0783,0.0851,0.0897,0.0957,0.1011,0.104,0.1124,0.1032,0.121,0.1207,0.1222,0.1213,0.122,0.1281,0.1143,0.1143,0.1143,0.0847,0.0857,0.0948,0.0983,0.1037,0.11,0.1148,0.1199,0.1202,0.1243,0.127,0.136,0.1354,0.1358,0.1423,0.1315,0.1315,0.1315,0.1315,0.0996,0.1039,0.1046,0.1129,0.1147,0.1233,0.1295,0.1301,0.138,0.1357,0.137,0.1294,0.1367,0.1434,0.1318,0.1318,0.1317,0.1317,0.1317,0.11,0.1107,0.1133,0.1184,0.1248,0.1284,0.1336,0.1379,0.1411,0.1435,0.1417,0.1416,0.1444,0.1442,0.1442,0.1442,0.1442,0.1442,0.1443,0.1156,0.118,0.1193,0.1241,0.1243,0.1283,0.1347,0.1382,0.144,0.1461,0.1461,0.1501,0.1398,0.1357,0.1445,0.1445,0.1444,0.1444,0.1444,0.1246,0.1214,0.1231,0.1226,0.1228,0.1232,0.1306,0.1378,0.1433,0.1464,0.1571,0.1477,0.1457,0.1451,0.1413,0.151,0.151,0.151,0.151,0.1261,0.1262,0.1217,0.1182,0.1179,0.12,0.1218,0.1319,0.1495,0.1593,0.1636,0.1622,0.1616,0.1604,0.1596,0.156,0.1693,0.1694,0.1694,0.1261,0.1244,0.1194,0.1154,0.1133,0.1145,0.1147,0.124,0.1542,0.1709,0.173,0.1723,0.1708,0.1694,0.1676,0.1659,0.1599,0,0]},{"header":{"parameterUnit":"m.s-1","parameterCategory":2,"la1":30.2992,"la2":30.254,"lo1":-89.0895,"lo2":-89.0443,"dy":0.0025,"dx":0.0025,"nx":19,"ny":19,"refTime":"2026-05-09T21:00:00:Z","depth":"0","parameterNumber":3,"parameterNumberName":"V-component_of_CURRENTS"},"data":[0,0,0,0.0575,0.0578,0.0695,0.0695,0.0684,0.0684,0,0,0,0,0,0,0,0,0,0,0,0.0524,0.0525,0.0575,0.0578,0.0695,0.0695,0.0684,0.0684,0,0,0,0,0,0,0,0,0,0,0,0.0524,0.0525,0.0526,0.0579,0.0694,0.0695,0.0684,0.0632,0,0,0,0,0,0,0,0,0,0,0.0537,0.0528,0.0525,0.0526,0.0579,0.0694,0.0695,0.0631,0.0635,0.059,0,0.0619,0,0.0659,0.0681,0.068,0,0,0,0.0563,0.0525,0.0552,0.0526,0.0581,0.0694,0.0638,0.0635,0.0639,0.0595,0.0619,0.0621,0.0659,0.068,0.068,0.071,0.071,0,0,0.0557,0.0543,0.055,0.0556,0.0622,0.0634,0.0642,0.0639,0.0646,0.062,0.0621,0.0658,0.068,0.068,0.0709,0.071,0,0,0,0.0548,0.0539,0.057,0.0554,0.0593,0.0638,0.0646,0.0646,0.0656,0.0622,0.0658,0.068,0.0679,0.0708,0.0709,0.078,0,0,0,0.0544,0.0535,0.0567,0.0559,0.0595,0.0646,0.0653,0.0656,0.0658,0.0658,0.068,0.0679,0.0707,0.0709,0.0777,0.0821,0,0,0,0.0517,0.0533,0.0549,0.0558,0.0617,0.0648,0.0659,0.0658,0.068,0.068,0.0679,0.0707,0.0708,0.0774,0.0815,0.083,0,0,0,0.0494,0.0555,0.0549,0.0624,0.0617,0.0701,0.066,0.0707,0.0715,0.068,0.0708,0.0709,0.0773,0.0812,0.0827,0.0828,0.0842,0,0,0.0562,0.0563,0.0607,0.0605,0.0708,0.0683,0.0767,0.0751,0.0719,0.0692,0.0694,0.0778,0.0815,0.0829,0.0918,0.093,0,0,0,0.0623,0.0658,0.0687,0.0743,0.0781,0.0819,0.0808,0.0797,0.0794,0.0736,0.079,0.0812,0.0817,0.0812,0.0822,0.0778,0.0716,0.0716,0.0716,0.0719,0.0735,0.0808,0.0834,0.0879,0.0907,0.0926,0.0904,0.085,0.0862,0.0878,0.0952,0.0949,0.0956,0.0912,0.088,0.088,0.0881,0.0881,0.083,0.0854,0.0882,0.095,0.0967,0.1018,0.1028,0.1005,0.1001,0.0952,0.0954,0.0899,0.0971,0.0919,0.0886,0.0885,0.0884,0.0884,0.0883,0.0874,0.0875,0.0916,0.0991,0.1054,0.1085,0.1139,0.1129,0.1082,0.1095,0.105,0.1048,0.0992,0.108,0.108,0.1081,0.1081,0.1081,0.1081,0.0871,0.0909,0.0952,0.1027,0.1073,0.1146,0.1195,0.1201,0.1185,0.1141,0.114,0.1024,0.1012,0.0992,0.1086,0.1085,0.1084,0.1084,0.1083,0.0897,0.0894,0.0974,0.1019,0.1127,0.12,0.1245,0.1271,0.1258,0.1246,0.1127,0.1149,0.1121,0.1112,0.1095,0.1209,0.1209,0.1209,0.1209,0.0889,0.0899,0.0982,0.1062,0.1156,0.1227,0.1293,0.1322,0.1254,0.1201,0.1155,0.1108,0.1105,0.1072,0.1064,0.1044,0.1143,0.1143,0.1143,0.0905,0.0926,0.0985,0.1061,0.1169,0.1256,0.1319,0.1367,0.1248,0.1134,0.1098,0.1101,0.1024,0.1022,0.096,0.0953,0.0914,0,0]}],[{"header":{"parameterUnit":"m.s-1","parameterCategory":2,"la1":30.2992,"la2":30.254,"lo1":-89.0895,"lo2":-89.0443,"dy":0.0025,"dx":0.0025,"nx":19,"ny":19,"refTime":"2026-05-09T21:00:00:Z","depth":"2","parameterNumber":2,"parameterNumberName":"U-component_of_CURRENTS"},"data":[0,0,0,0.0501,0.0501,0.0525,0.0525,0.056,0.056,0,0,0,0,0,0,0,0,0,0,0,0.0493,0.0494,0.0501,0.0501,0.0525,0.0525,0.056,0.056,0,0,0,0,0,0,0,0,0,0,0,0.0493,0.0494,0.0494,0.0502,0.0525,0.0525,0.056,0.0539,0,0,0,0,0,0,0,0,0,0,0.0515,0.0529,0.0494,0.0494,0.0502,0.0525,0.0525,0.0538,0.054,0.0552,0,0.0562,0,0.0565,0.0563,0.0563,0,0,0,0.0495,0.0527,0.0516,0.0494,0.0502,0.0525,0.0513,0.0539,0.0542,0.0555,0.0563,0.0564,0.0566,0.0563,0.0564,0.0592,0.0592,0,0,0.0494,0.0514,0.0514,0.0518,0.0517,0.0512,0.0514,0.0541,0.0559,0.0563,0.0565,0.0566,0.0564,0.0564,0.0592,0.0592,0,0,0,0.0494,0.0513,0.0501,0.0516,0.0522,0.0513,0.0515,0.0557,0.0549,0.0565,0.0567,0.0564,0.0565,0.0592,0.0592,0.0597,0,0,0,0.0493,0.0513,0.0501,0.0515,0.0522,0.0545,0.0531,0.0546,0.055,0.0566,0.0564,0.0565,0.0592,0.0592,0.0596,0.057,0,0,0,0.0491,0.0514,0.0515,0.0516,0.0527,0.0544,0.0538,0.0547,0.0551,0.0563,0.0565,0.0592,0.0592,0.0596,0.0571,0.059,0,0,0,0.0511,0.0509,0.0516,0.051,0.0526,0.0518,0.0537,0.0569,0.0585,0.0564,0.0592,0.0592,0.0596,0.0572,0.059,0.0601,0.0602,0,0,0.0508,0.051,0.0498,0.0503,0.0457,0.0514,0.0498,0.0547,0.0582,0.0582,0.0583,0.0596,0.0571,0.059,0.0597,0.0598,0,0,0,0.0495,0.0472,0.0461,0.0444,0.0454,0.0461,0.0514,0.0533,0.0577,0.0591,0.0594,0.0577,0.0589,0.0596,0.0597,0.0591,0.0591,0.0591,0.0591,0.047,0.0449,0.0412,0.0386,0.0404,0.044,0.0456,0.0496,0.0551,0.0582,0.0581,0.0591,0.0599,0.0599,0.0595,0.0595,0.0595,0.0595,0.0595,0.0383,0.0348,0.0354,0.0324,0.0355,0.0385,0.0422,0.0473,0.0519,0.0555,0.0569,0.0599,0.06,0.0595,0.0595,0.0595,0.0595,0.0595,0.0595,0.0313,0.0304,0.0307,0.031,0.0342,0.0397,0.0431,0.0477,0.0521,0.0538,0.0596,0.0596,0.0592,0.0592,0.0591,0.0591,0.0591,0.0591,0.0591,0.0263,0.0256,0.0289,0.0306,0.0364,0.0422,0.0478,0.0498,0.055,0.058,0.0581,0.059,0.059,0.0592,0.0591,0.0591,0.0591,0.0591,0.0591,0.0183,0.0251,0.0277,0.0336,0.042,0.0447,0.0491,0.0538,0.0571,0.0581,0.06,0.06,0.0597,0.0597,0.0598,0.0599,0.0599,0.0599,0.0599,0.0189,0.0198,0.0301,0.0376,0.0428,0.0455,0.0503,0.0529,0.0559,0.055,0.0552,0.0554,0.0556,0.055,0.0551,0.0551,0.054,0.054,0.0539,0.0184,0.0221,0.0301,0.0378,0.0438,0.0448,0.0489,0.0515,0.0499,0.0534,0.0508,0.0602,0.0611,0.0611,0.0608,0.0607,0.0609,0,0]},{"header":{"parameterUnit":"m.s-1","parameterCategory":2,"la1":30.2992,"la2":30.254,"lo1":-89.0895,"lo2":-89.0443,"dy":0.0025,"dx":0.0025,"nx":19,"ny":19,"refTime":"2026-05-09T21:00:00:Z","depth":"2","parameterNumber":3,"parameterNumberName":"V-component_of_CURRENTS"},"data":[0,0,0,-0.0234,-0.0234,-0.0313,-0.0314,-0.0407,-0.0408,0,0,0,0,0,0,0,0,0,0,0,-0.0236,-0.0237,-0.0234,-0.0234,-0.0313,-0.0314,-0.0407,-0.0408,0,0,0,0,0,0,0,0,0,0,0,-0.0236,-0.0237,-0.0237,-0.0234,-0.0313,-0.0314,-0.0407,-0.036,0,0,0,0,0,0,0,0,0,0,-0.0289,-0.0257,-0.0236,-0.0237,-0.0234,-0.0313,-0.0314,-0.0359,-0.0363,-0.0355,0,-0.036,0,-0.0352,-0.041,-0.041,0,0,0,-0.0279,-0.0253,-0.0279,-0.0237,-0.0234,-0.0312,-0.029,-0.0362,-0.0367,-0.0361,-0.0361,-0.0364,-0.0353,-0.041,-0.041,-0.0457,-0.0457,0,0,-0.0275,-0.0249,-0.0276,-0.0282,-0.0244,-0.0287,-0.0292,-0.0365,-0.0362,-0.0362,-0.0366,-0.0355,-0.041,-0.041,-0.0457,-0.0457,0,0,0,-0.0232,-0.0245,-0.0271,-0.0279,-0.0275,-0.0289,-0.0294,-0.036,-0.037,-0.0367,-0.0356,-0.041,-0.041,-0.0456,-0.0457,-0.0468,0,0,0,-0.0232,-0.0217,-0.0269,-0.0254,-0.0273,-0.0311,-0.0287,-0.0367,-0.0373,-0.0356,-0.041,-0.0411,-0.0456,-0.0457,-0.0467,-0.0442,0,0,0,-0.0235,-0.0216,-0.0225,-0.0252,-0.0263,-0.031,-0.0327,-0.0369,-0.0364,-0.041,-0.0411,-0.0456,-0.0457,-0.0466,-0.0442,-0.0415,0,0,0,-0.0209,-0.0244,-0.0224,-0.0256,-0.0262,-0.0319,-0.0326,-0.0356,-0.0393,-0.041,-0.0456,-0.0457,-0.0466,-0.0442,-0.0416,-0.03,-0.029,0,0,-0.025,-0.0248,-0.0271,-0.0254,-0.0307,-0.0312,-0.0366,-0.0399,-0.0404,-0.0438,-0.044,-0.0467,-0.0442,-0.0415,-0.0342,-0.033,0,0,0,-0.0282,-0.0301,-0.0315,-0.0329,-0.0351,-0.0372,-0.0394,-0.0411,-0.0449,-0.0419,-0.0479,-0.0462,-0.0445,-0.0377,-0.0368,-0.046,-0.046,-0.046,-0.046,-0.035,-0.035,-0.0379,-0.0384,-0.04,-0.0414,-0.0439,-0.0461,-0.0467,-0.0479,-0.0481,-0.0478,-0.0408,-0.0399,-0.0508,-0.0508,-0.0508,-0.0508,-0.0508,-0.0419,-0.0431,-0.0408,-0.0434,-0.0427,-0.0456,-0.0472,-0.0477,-0.0491,-0.0505,-0.0489,-0.0404,-0.039,-0.0509,-0.0509,-0.0509,-0.0508,-0.0508,-0.0508,-0.0477,-0.047,-0.0471,-0.0459,-0.0463,-0.0459,-0.0438,-0.0463,-0.0477,-0.0472,-0.0373,-0.0371,-0.0453,-0.0459,-0.0459,-0.0459,-0.0459,-0.0459,-0.0458,-0.0518,-0.0512,-0.0493,-0.048,-0.0458,-0.0428,-0.0411,-0.0383,-0.0346,-0.035,-0.035,-0.0461,-0.0462,-0.0449,-0.0455,-0.0456,-0.0456,-0.0457,-0.0457,-0.0555,-0.054,-0.0506,-0.0479,-0.041,-0.0335,-0.0317,-0.0206,-0.02,-0.0156,-0.0279,-0.0284,-0.0256,-0.0262,-0.0244,-0.0197,-0.0197,-0.0197,-0.0197,-0.0563,-0.0558,-0.0477,-0.0416,-0.0348,-0.0282,-0.011,-0.0031,-0.0045,-0.0075,-0.0081,-0.0083,-0.0095,-0.006,-0.0071,-0.005,0.0048,0.0049,0.0049,-0.0545,-0.0519,-0.0454,-0.0389,-0.0309,-0.0191,0.001,0.014,0.0105,0.0053,-0.0099,-0.0168,-0.0188,-0.0201,-0.016,-0.0172,-0.0144,0,0]}],[{"header":{"parameterUnit":"m.s-1","parameterCategory":2,"la1":30.2992,"la2":30.254,"lo1":-89.0895,"lo2":-89.0443,"dy":0.0025,"dx":0.0025,"nx":19,"ny":19,"refTime":"2026-05-09T21:00:00:Z","depth":"4","parameterNumber":2,"parameterNumberName":"U-component_of_CURRENTS"},"data":[0,0,0,-0.008,-0.008,-0.0114,-0.0115,-0.0127,-0.0127,0,0,0,0,0,0,0,0,0,0,0,-0.0075,-0.0075,-0.008,-0.008,-0.0114,-0.0115,-0.0127,-0.0127,0,0,0,0,0,0,0,0,0,0,0,-0.0075,-0.0075,-0.0075,-0.008,-0.0114,-0.0115,-0.0127,-0.0112,0,0,0,0,0,0,0,0,0,0,-0.0084,-0.009,-0.0075,-0.0075,-0.008,-0.0114,-0.0115,-0.0112,-0.0113,-0.01,0,-0.0104,0,-0.0107,-0.0126,-0.0126,0,0,0,-0.0091,-0.0089,-0.0084,-0.0075,-0.008,-0.0114,-0.0102,-0.0113,-0.0114,-0.0101,-0.0104,-0.0105,-0.0107,-0.0126,-0.0126,-0.0151,-0.0152,0,0,-0.0089,-0.0094,-0.0084,-0.0085,-0.0087,-0.0101,-0.0103,-0.0114,-0.0122,-0.0104,-0.0105,-0.0107,-0.0126,-0.0126,-0.0151,-0.0151,0,0,0,-0.0076,-0.0093,-0.009,-0.0085,-0.0088,-0.0101,-0.0104,-0.0122,-0.0117,-0.0105,-0.0107,-0.0126,-0.0126,-0.0151,-0.0151,-0.0132,0,0,0,-0.0076,-0.0084,-0.0089,-0.0094,-0.0088,-0.0112,-0.0112,-0.0116,-0.0117,-0.0107,-0.0126,-0.0126,-0.015,-0.0151,-0.0131,-0.0115,0,0,0,-0.0074,-0.0084,-0.0085,-0.0094,-0.0101,-0.0111,-0.0109,-0.0117,-0.0118,-0.0126,-0.0126,-0.015,-0.0151,-0.0131,-0.0115,-0.0089,0,0,0,-0.0082,-0.009,-0.0085,-0.01,-0.0101,-0.0111,-0.0109,-0.0139,-0.0152,-0.0126,-0.015,-0.0151,-0.0131,-0.0115,-0.009,-0.0048,0,0,0,-0.0094,-0.0092,-0.01,-0.0096,-0.0098,-0.0107,-0.0124,-0.015,-0.0158,-0.0145,-0.0146,-0.0131,-0.0115,-0.0089,-0.0101,0,0,0,0,-0.0105,-0.0112,-0.0111,-0.0117,-0.0115,-0.0119,-0.0144,-0.0145,-0.016,-0.0166,-0.0155,-0.0146,-0.0129,-0.0108,-0.0155,-0.0155,-0.0155,-0.0155,-0.0155,-0.0133,-0.0129,-0.0135,-0.0129,-0.0132,-0.0141,-0.0146,-0.0156,-0.016,-0.0173,-0.0147,-0.0139,-0.012,-0.0173,-0.0173,-0.0173,-0.0173,-0.0173,-0.0173,-0.0147,-0.0146,-0.0146,-0.0146,-0.0136,-0.0146,-0.0139,-0.0149,-0.0132,-0.0148,-0.0133,-0.0113,-0.0171,-0.0171,-0.0172,-0.0172,-0.0172,-0.0172,-0.0172,-0.0155,-0.0149,-0.0153,-0.0145,-0.0143,-0.014,-0.0117,-0.012,-0.0114,-0.0106,-0.0075,-0.0122,-0.0101,-0.0096,-0.0096,-0.0095,-0.0095,-0.0095,-0.0095,-0.015,-0.0151,-0.0142,-0.0138,-0.0129,-0.0114,-0.0096,-0.0075,-0.0071,-0.0047,-0.0095,-0.0113,-0.0115,-0.0097,-0.0092,-0.0093,-0.0093,-0.0093,-0.0094,-0.0145,-0.0139,-0.0124,-0.0114,-0.0091,-0.0076,-0.0066,-0.0013,0.0018,0.0043,-0.0013,-0.0017,-0.0014,-0.0018,0.0004,0.0039,0.004,0.004,0,-0.0135,-0.0134,-0.0103,-0.0078,-0.0048,-0.005,0.0012,0.0036,0.0046,0.0045,0.0007,-0.0059,-0.0061,-0.0062,-0.0065,-0.0042,0,0,0,-0.0126,-0.0117,-0.0089,-0.0063,-0.0027,0.0014,0.003,0.0056,0.0034,0.0088,0.0055,0.0051,-0.0038,-0.0084,-0.009,-0.0093,-0.0063,0,0]},{"header":{"parameterUnit":"m.s-1","parameterCategory":2,"la1":30.2992,"la2":30.254,"lo1":-89.0895,"lo2":-89.0443,"dy":0.0025,"dx":0.0025,"nx":19,"ny":19,"refTime":"2026-05-09T21:00:00:Z","depth":"4","parameterNumber":3,"parameterNumberName":"V-component_of_CURRENTS"},"data":[0,0,0,0.0101,0.0101,0.0088,0.0088,0.0013,0.0013,0,0,0,0,0,0,0,0,0,0,0,0.0103,0.0103,0.0101,0.0101,0.0088,0.0088,0.0014,0.0013,0,0,0,0,0,0,0,0,0,0,0,0.0103,0.0103,0.0103,0.0101,0.0088,0.0088,0.0014,0.0035,0,0,0,0,0,0,0,0,0,0,0.0054,0.0055,0.0103,0.0103,0.0101,0.0088,0.0088,0.0037,0.0034,0.0006,0,0.0012,0,0.0015,0.0008,0.0007,0,0,0,0.009,0.0058,0.0069,0.0103,0.0101,0.0088,0.0091,0.0035,0.0032,0.0002,0.0011,0.0009,0.0014,0.0007,0.0007,-0.0043,-0.0043,0,0,0.009,0.0082,0.0072,0.0068,0.0106,0.0091,0.009,0.0034,0.0023,0.0011,0.0007,0.0013,0.0006,0.0006,-0.0043,-0.0043,0,0,0,0.01,0.0082,0.0096,0.007,0.0075,0.0091,0.009,0.0026,0.0035,0.0007,0.0012,0.0006,0.0005,-0.0044,-0.0043,-0.0044,0,0,0,0.01,0.0089,0.0096,0.0088,0.0077,0.0055,0.0083,0.0039,0.0033,0.0012,0.0006,0.0004,-0.0044,-0.0043,-0.0044,-0.0059,0,0,0,0.0102,0.0088,0.0094,0.0088,0.009,0.0057,0.0062,0.0038,0.0036,0.0007,0.0004,-0.0044,-0.0044,-0.0044,-0.0059,-0.0082,0,0,0,0.0084,0.0085,0.0093,0.0089,0.009,0.0097,0.0062,0.0035,0.001,0.0006,-0.0044,-0.0043,-0.0044,-0.0058,-0.0081,-0.0054,0,0,0,0.0076,0.0083,0.0082,0.009,0.0096,0.0097,0.008,0.002,0.0004,-0.0031,-0.0032,-0.0044,-0.0059,-0.0082,-0.0048,0,0,0,0,0.0074,0.0072,0.0078,0.0078,0.0092,0.0077,0.0047,0.0034,-0.0011,-0.0007,-0.0042,-0.0051,-0.0066,-0.0047,-0.0043,-0.0043,-0.0043,-0.0043,-0.0043,0.0027,0.0045,0.0044,0.0062,0.0064,0.0051,0.0031,0.0003,-0.0005,-0.0024,-0.0049,-0.0066,-0.0045,-0.0039,-0.0039,-0.0039,-0.0039,-0.0039,-0.0039,0.0008,0.0012,0.0018,0.0028,0.0028,0.0015,-0.0003,-0.0019,-0.0053,-0.0044,-0.0058,-0.0046,-0.0039,-0.0039,-0.0039,-0.0039,-0.0039,-0.0039,-0.0039,-0.0015,-0.0006,-0.0004,-0.0,-0.0014,-0.0014,-0.0041,-0.0055,-0.0068,-0.0086,-0.0077,-0.0078,-0.0082,-0.0093,-0.0093,-0.0093,-0.0093,-0.0093,-0.0094,-0.0031,-0.0025,-0.0027,-0.0025,-0.003,-0.0042,-0.0063,-0.0078,-0.0092,-0.0089,-0.0094,-0.0085,-0.0083,-0.0086,-0.0096,-0.0096,-0.0095,-0.0095,-0.0095,-0.0043,-0.004,-0.0042,-0.0046,-0.0054,-0.0063,-0.0075,-0.0087,-0.011,-0.0119,-0.0093,-0.0093,-0.0098,-0.0096,-0.01,-0.0114,-0.0114,-0.0114,0,-0.0056,-0.0052,-0.0057,-0.0065,-0.0075,-0.0077,-0.0083,-0.0094,-0.011,-0.0104,-0.013,-0.0102,-0.0101,-0.0107,-0.0105,-0.0109,0,0,0,-0.0072,-0.0066,-0.0077,-0.0075,-0.0085,-0.0084,-0.0086,-0.0086,-0.0096,-0.0099,-0.0106,-0.0108,-0.0095,-0.0103,-0.011,-0.0108,-0.0114,0,0]}]]